Theta_e
329 331 333 332 332 334 334 335 337 342 346 346 345 351 347 347 346 345 344 346 340 348 348 347 351 354 353 352 351 350 352 353 352
330 332 332 332 335 337 336 336 338 339 346 345 345 349 351 348 347 349 348 348 347 347 347 350 352 351 354 354 350 351 353 350 349
321 330 332 333 335 334 338 339 339 340 348 347 348 349 350 352 348 351 350 350 348 346 347 346 338 341 344 351 348 347 353 351 351
324 331 331 332 335 336 339 341 343 349 348 347 348 349 349 347 349 351 350 350 350 345 344 344 335 342 344 349 350 350 352 349 351
329 332 329 333 335 337 339 339 341 345 347 347 341 341 346 347 348 350 349 349 351 345 336 335 342 346 338 344 350 353 351 348 351
327 332 332 331 331 334 337 339 341 344 339 338 341 337 339 348 349 350 350 349 350 352 344 336 338 347 346 347 350 351 352 350 349
329 330 331 332 333 333 335 338 340 339 336 340 338 335 335 340 348 348 350 351 350 349 351 347 346 349 351 352 352 352 353 352 351
330 331 330 330 333 334 335 342 344 340 340 337 338 338 337 343 343 347 350 350 351 350 350 351 351 351 352 353 353 355 352 352 350
328 329 332 335 338 337 336 337 339 344 342 341 341 340 342 340 337 336 337 343 348 350 350 350 351 350 350 350 354 345 343 348 351
326 329 332 332 336 338 337 337 338 337 338 344 341 338 339 338 336 334 334 334 337 346 348 349 349 351 351 351 352 341 340 342 346
328 329 333 334 335 340 339 339 339 341 342 343 342 339 338 337 331 332 339 343 339 347 349 349 349 350 352 351 351 338 336 340 343
329 328 328 332 335 335 334 335 344 342 341 341 342 341 339 339 334 336 342 344 346 348 349 349 350 350 351 350 352 334 333 335 343
328 327 327 327 331 332 330 331 332 334 336 336 337 339 341 344 344 343 346 344 346 349 350 350 351 350 350 342 349 335 329 330 344
324 323 324 324 324 323 327 332 333 331 335 334 337 339 341 343 345 347 348 347 348 347 347 347 347 347 349 349 348 348 324 325 342
323 320 322 324 324 326 328 331 332 331 334 338 339 337 338 341 342 345 345 342 343 343 345 344 343 344 345 348 349 333 326 320 325
319 321 321 323 323 325 329 330 332 329 335 337 336 335 336 338 339 339 337 333 331 333 338 337 335 333 336 338 335 330 318 319 322
320 322 321 322 322 322 326 335 337 336 335 336 334 332 333 335 336 335 329 327 323 327 329 330 334 334 333 332 331 328 325 324 324
322 323 324 324 324 324 325 332 333 333 332 334 332 331 333 334 334 333 316 307 306 310 315 310 321 329 333 330 327 326 319 320 324
323 322 322 321 326 328 327 330 330 330 331 332 330 329 333 335 334 331 323 314 308 303 301 299 298 299 308 311 307 302 301 301 305
322 323 324 326 326 325 328 329 328 330 331 333 329 328 331 330 326 327 324 322 316 314 307 302 298 297 300 302 301 300 300 301 302
Wind_Speed
4 9 16 17 18 15 14 18 9 8 11 11 10 8 9 6 7 5 5 6 4 4 5 3 5 6 6 4 4 2 2 0 2
4 6 22 26 21 18 19 17 16 16 15 12 11 8 8 7 6 6 6 7 5 3 5 5 4 1 5 6 5 6 5 2 3
3 2 10 20 19 13 18 19 10 15 15 17 16 12 8 7 7 7 6 5 3 6 5 5 4 2 5 5 6 5 5 3 1
7 5 11 14 20 19 16 15 13 19 18 12 11 12 11 8 7 7 6 5 4 6 6 7 8 8 6 7 7 6 4 4 3
11 11 10 6 11 19 15 15 15 11 10 9 3 5 6 9 7 6 6 6 6 12 8 6 7 6 7 7 6 7 7 6 4
8 6 8 8 8 13 10 12 8 6 11 13 11 6 5 9 11 11 9 8 8 7 9 12 9 7 7 6 6 6 6 7 7
7 7 6 6 6 5 6 10 15 13 10 9 7 9 7 5 11 14 13 11 8 7 7 7 8 8 8 7 6 6 6 6 6
9 9 7 6 7 7 6 7 8 11 12 14 5 2 6 7 4 4 6 8 8 8 7 8 8 8 7 7 7 6 7 7 7
11 9 9 7 8 8 6 6 6 6 9 6 7 8 10 3 4 6 10 16 7 7 8 8 8 7 8 7 8 12 11 8 7
10 9 9 9 9 8 7 6 6 4 5 10 9 12 10 8 5 7 14 10 15 8 9 7 9 10 9 10 10 12 14 12 7
7 8 8 7 7 7 4 6 7 5 5 6 7 7 7 7 8 6 13 12 15 12 7 9 10 9 9 10 9 13 15 14 7
9 9 8 8 8 7 7 7 6 6 4 3 2 5 7 11 12 13 14 15 14 8 7 5 6 7 9 10 11 13 15 11 7
8 9 7 6 6 4 5 4 5 6 4 5 4 2 1 3 5 7 7 7 7 4 5 6 5 7 6 9 7 11 13 10 6
9 8 7 6 6 4 3 5 7 6 6 3 2 2 5 4 5 5 5 4 2 3 4 4 5 6 5 7 7 8 11 13 7
8 8 8 7 5 3 3 3 6 4 6 5 4 1 4 5 5 2 2 1 1 2 1 2 4 4 4 4 5 9 8 11 13
8 9 6 5 5 5 3 3 6 6 6 6 2 3 5 3 3 3 5 5 4 3 3 1 2 1 3 3 1 2 5 8 11
7 7 6 3 4 4 5 5 6 7 6 4 1 3 3 3 4 4 4 3 3 3 3 2 2 1 1 0 2 3 2 5 9
8 7 5 4 4 3 3 4 7 5 4 2 1 2 3 3 4 4 4 5 3 3 2 1 2 3 1 2 2 1 3 4 6
7 7 3 1 2 4 4 5 2 4 2 1 2 2 3 3 3 3 4 4 3 7 2 3 5 12 6 1 3 9 9 9 12
8 5 4 4 1 3 3 5 3 3 1 4 2 2 2 3 3 3 3 3 2 1 1 11 15 10 5 4 10 14 17 17 15
Wind_Direction
166 177 169 155 163 152 207 213 218 231 188 180 187 178 189 194 186 191 212 203 185 181 189 191 189 180 180 203 200 210 318 58 290
130 204 160 171 177 183 197 205 217 214 187 185 185 193 183 186 209 217 212 221 190 116 122 83 95 346 195 190 187 182 183 219 264
71 210 174 177 189 189 196 214 208 210 195 189 187 181 176 183 195 216 222 231 186 140 145 116 6 121 314 223 213 211 169 197 290
136 287 284 193 181 195 196 189 186 193 187 185 191 188 176 174 190 206 221 231 207 163 141 162 209 181 209 244 201 211 201 218 243
184 215 251 159 145 171 182 184 198 208 140 116 267 298 285 171 190 202 203 213 231 154 179 186 203 207 204 221 203 199 197 203 218
222 140 94 129 116 139 164 179 182 171 140 169 190 209 232 216 189 203 206 198 212 197 187 177 194 207 214 217 210 215 206 198 206
133 130 127 125 137 130 133 157 169 170 173 191 208 224 229 241 194 200 214 204 199 205 201 202 191 204 209 209 222 221 222 207 210
141 140 127 126 123 99 79 87 110 163 181 196 170 277 332 311 334 289 218 195 187 197 193 207 202 204 211 204 206 215 214 218 216
154 164 162 131 118 113 103 84 72 95 171 178 181 139 224 340 347 332 309 307 212 197 204 206 199 206 209 212 216 216 222 213 214
165 160 147 133 129 134 128 139 127 117 114 138 150 159 164 165 154 290 285 272 296 229 216 205 210 210 203 216 219 217 219 227 222
125 111 119 137 135 125 162 156 133 140 129 123 131 152 155 156 139 217 267 270 256 237 220 213 222 221 210 213 220 212 223 233 223
118 111 106 107 109 109 85 80 139 149 173 158 170 178 178 185 195 212 236 240 238 226 222 234 223 217 216 212 229 216 220 221 219
112 114 114 104 111 108 114 162 140 126 110 83 80 6 260 232 216 227 232 237 248 238 220 214 210 232 228 231 227 229 228 210 221
105 112 111 111 118 144 165 167 151 144 143 184 151 38 329 317 265 222 242 248 232 254 255 236 226 236 233 238 226 235 219 215 197
108 93 81 59 48 284 233 123 129 137 105 132 100 14 305 298 285 269 211 171 17 348 260 258 264 259 256 243 242 233 223 187 205
114 104 85 60 43 10 342 222 153 151 128 114 85 344 313 286 296 91 53 47 24 2 6 291 308 312 299 294 26 62 134 166 173
113 109 99 76 35 353 2 53 64 107 104 101 105 297 317 257 162 124 93 77 38 5 6 359 344 204 240 148 106 113 91 122 120
115 102 80 58 1 314 297 103 116 121 106 68 277 312 321 166 156 143 99 73 32 354 22 344 306 297 251 213 212 209 157 170 141
114 103 88 81 349 48 7 13 126 128 134 144 111 342 297 160 173 152 150 149 141 64 25 334 263 263 240 81 98 100 91 87 90
120 119 113 125 117 281 50 14 4 3 41 88 44 296 259 165 215 139 120 95 103 124 142 66 40 25 70 120 134 115 113 102 87